User: anonymous   Login
Location: Kailua
(21.4020°N, 157.7390°W)
Time: 14:13:42
(UTC-10:00)
Language:

Cosmos 2297 Rocket - Orbit

View from above orbital plane
View from above orbital plane
View from above satellite
View from above satellite

Ground track
Ground track

The orbit data is extracted from the following two-line orbital elements,

1 23405U 94077B   15030.87591487 -.00000077  00000-0 -15233-4 0   174
2 23405 070.9806 240.9687 0003911 232.5781 218.4659 14.15134454 42670
Epoch (UTC): 30 January 2015 21:01:19
Eccentricity: 0.0003911
inclination: 70.9806°
perigee height: 839 km
apogee height: 844 km
right ascension of ascending node: 240.9687°
argument of perigee: 232.5781°
revolutions per day: 14.15134454
mean anomaly at epoch: 218.4659°
orbit number at epoch: 4267

The dashed part of the orbit path shows where the satellite is in the earth's shadow,  

DLR